Header for Extended Forecast Station List Page

Search by: ID | Name | Date | Parm | Value | Avg | % Avg
Sort by: ID | Name | Date | Parm | Value | Avg | % Avg

Enter search or view all records.

Click on id for station plot
#IDNameDateParmValueAvg% Avg
0BULO3BULLY CREEK-BULLY CREEK DAM10-22-2018INFLOW (KAF)33104
1MACI1BIG LOST-MACKAY RESERVOIR NEAR MACKAY10-22-2018INFLOW (KAF)385720
2RIDI1WILLOW CREEK-RIRIE DAM10-22-2018INFLOW (KAF)8899
3LWRI1LITTLE WOOD-LITTLE WOOD DAM10-22-2018INFLOW (KAF)121580
4BERO3MALHEUR-AGENCY VALLEY DAM10-22-2018INFLOW (KAF)111667
5MYKO3MCKAY CREEK-NEAR PILOT ROCK10-22-2018DISCHARGE (KAF)1817104
6DEDI1DEADWOOD-NEAR LOWMAN10-22-2018INFLOW (KAF)151982
7HWRI1BIG LOST-AT HOWELL RANCH NEAR CHILLY10-22-2018DISCHARGE (KAF)2221104
8ARDW1ENTIAT-NEAR ARDENVOIR10-22-2018DISCHARGE (KAF)222298
9WRMO3MALHEUR-WARM SPRINGS DAM10-22-2018INFLOW (KAF)172375
10MAGI1BIG WOOD-MAGIC DAM10-22-2018INFLOW (KAF)252790
11VALO3MALHEUR-NEAR VALE10-22-2018DISCHARGE (KAF)202773
12HOTI1BRUNEAU-NEAR HOT SPRINGS10-22-2018DISCHARGE (KAF)172862
13SATI1ST MARIES-NEAR SANTA10-22-2018DISCHARGE (KAF)143442
14GIBO3UMATILLA-NEAR GIBBON10-22-2018DISCHARGE (KAF)303488
15BUDW1BUMPING-BUMPING LAKE DAM10-22-2018INFLOW (KAF)163643
16BIGI1BOISE-AT GLENWOOD BRIDGE10-22-2018DISCHARGE (KAF)5536153
17STRM8ST. REGIS-NEAR ST. REGIS10-22-2018DISCHARGE (KAF)183846
18HALI1BIG WOOD-AT HAILEY10-22-2018DISCHARGE (KAF)3939101
19TNAW1TEANAWAY-BELOW FORKS10-22-2018DISCHARGE (KAF)104025
20KADW1KACHESS-KACHESS DAM10-22-2018INFLOW (KAF)274660
21RCCM8ROCK CREEK-NEAR CLINTON10-22-2018DISCHARGE (KAF)6148127
22KEDW1YAKIMA-KEECHELUS LAKE10-22-2018INFLOW (KAF)335263
23DLGM8CLARK FORK-AT DEER LODGE10-22-2018DISCHARGE (KAF)7362117
24PIHI1PORTNEUF-AT POCATELLO10-22-2018DISCHARGE (KAF)586392
25RILW1TIETON-RIMROCK LAKE NEAR RIMROCK10-22-2018INFLOW (KAF)356753
26EASW1YAKIMA-AT EASTON10-22-2018DISCHARGE (KAF)586885
27ARAI1SF BOISE-ANDERSON RANCH DAM10-22-2018INFLOW (KAF)667589
28NACW1NACHES-NEAR NACHES10-22-2018DISCHARGE (KAF)397949
29PDTO3UMATILLA-AT PENDLETON10-22-2018DISCHARGE (KAF)798099
30WSRI1WEISER-NEAR WEISER10-22-2018DISCHARGE (KAF)428152
31OWYO3OWYHEE-OWYHEE DAM10-22-2018INFLOW (KAF)648476
32UMAO3UMATILLA-NEAR UMATILLA10-22-2018DISCHARGE (KAF)11484135
33CSDI1NF PAYETTE-CASCADE DAM10-22-2018INFLOW (KAF)749478
34PATW1METHOW-NEAR PATEROS10-22-2018DISCHARGE (KAF)979899
35TEAI1TETON-NEAR ST. ANTHONY10-22-2018DISCHARGE (KAF)9110389
36CLUW1CLE ELUM-CLE ELUM LAKE10-22-2018INFLOW (KAF)5410452
37CLFW1NACHES-NEAR CLIFFDEL10-22-2018DISCHARGE (KAF)5710554
38MONO3NF JOHN DAY-AT MONUMENT10-22-2018DISCHARGE (KAF)6311156
39CHEI1FALL RIVER-NEAR CHESTER10-22-2018DISCHARGE (KAF)113112100
40JLKW4SNAKE-JACKSON LAKE AT DAM10-22-2018INFLOW (KAF)10411392
41IPDI1HENRYS FORK-ISLAND PARK DAM10-22-2018INFLOW (KAF)8211671
42TCHW1WALLA WALLA-NEAR TOUCHET10-22-2018DISCHARGE (KAF)9112076
43LAUW1KETTLE-AT LAURIER10-22-2018DISCHARGE (KAF)8012564
44BONM8BLACKFOOT-NEAR BONNER10-22-2018DISCHARGE (KAF)138134103
45CHDW1CHELAN-LAKE CHELAN DAM10-22-2018INFLOW (KAF)15615899
46WGCM8MF FLATHEAD-NEAR WEST GLACIER10-22-2018DISCHARGE (KAF)10516663
47FCFM8NF FLATHEAD-NEAR COLUMBIA FALLS10-22-2018DISCHARGE (KAF)10518955
48SERO3JOHN DAY-AT SERVICE CK10-22-2018DISCHARGE (KAF)13320465
49PARI1BOISE-NEAR PARMA10-22-2018DISCHARGE (KAF)18520989
50BITM8BITTERROOT-NEAR MISSOULA10-22-2018DISCHARGE (KAF)15922471
51HODO3HOOD-NEAR TUCKER BRIDGE10-22-2018DISCHARGE (KAF)232232100
52PRTI1PRIEST-NEAR PRIEST RIVER10-22-2018DISCHARGE (KAF)9723441
53UNDW1WHITE SALMON-NEAR UNDERWOOD10-22-2018DISCHARGE (KAF)23524098
54HHWM8SF FLATHEAD-HUNGRY HORSE DAM10-22-2018INFLOW (KAF)13224354
55UMTW1YAKIMA-AT UMTANUM10-22-2018DISCHARGE (KAF)23424795
56TONW1OKANOGAN-NEAR TONASKET10-22-2018DISCHARGE (KAF)22328179
57PITW1KLICKITAT-NEAR PITT10-22-2018DISCHARGE (KAF)22128378
58PESW1WENATCHEE-AT PESHASTIN10-22-2018DISCHARGE (KAF)17729959
59TRYO3GRANDE RONDE-TROY10-22-2018DISCHARGE (KAF)18930462
60JKSW4SNAKE-NEAR JACKSON10-22-2018DISCHARGE (KAF)327308106
61ABOM8CLARK FORK-ABOVE MISSOULA10-22-2018DISCHARGE (KAF)367341108
62ANTI1HENRYS FORK-AT ST. ANTHONY10-22-2018DISCHARGE (KAF)349341102
63EMMI1PAYETTE-NEAR EMMETT10-22-2018DISCHARGE (KAF)28135080
64ALPW4SNAKE-NEAR ALPINE10-22-2018DISCHARGE (KAF)38338699
65REXI1HENRYS FORK-AT REXBURG10-22-2018DISCHARGE (KAF)437430102
66PARW1YAKIMA-NEAR PARKER10-22-2018DISCHARGE (KAF)36647577
67DWRI1NF CLEARWATER-DWORSHAK DAM10-22-2018INFLOW (KAF)25252148
68BELM8CLARK FORK-BELOW MISSOULA10-22-2018DISCHARGE (KAF)52957093
69MILI1SNAKE-AT MILNER10-22-2018DISCHARGE (KAF)6357111
70HEII1SNAKE-NEAR HEISE10-22-2018DISCHARGE (KAF)36158662
71PLDI1SF SNAKE-PALISADES DAM10-22-2018INFLOW (KAF)60362497
72ORFI1CLEARWATER-AT OROFINO10-22-2018DISCHARGE (KAF)31867747
73COEI1COEUR D ALENE-COEUR D ALENE LAKE10-22-2018INFLOW (KAF)22869933
74KIOW1YAKIMA-AT KIONA10-22-2018DISCHARGE (KAF)57570482
75SNAI1SNAKE-AT BLACKFOOT10-22-2018DISCHARGE (KAF)53973473
76SRGM8CLARK FORK-AT ST REGIS10-22-2018DISCHARGE (KAF)67274690
77BFTI1SNAKE-NEAR BLACKFOOT10-22-2018DISCHARGE (KAF)55478870
78SHYI1SNAKE-NEAR SHELLEY10-22-2018DISCHARGE (KAF)62680478
79SIFI1SNAKE-AB EAGLE ROCK NR IDAHO FALLS10-22-2018DISCHARGE (KAF)63181677
80LYDM8KOOTENAI-LIBBY DAM10-22-2018INFLOW (KAF)74888485
81WHBI1SALMON-AT WHITEBIRD10-22-2018DISCHARGE (KAF)1045106798
82LLKW1SPOKANE-AT LONGLAKE10-22-2018INFLOW (KAF)515116444
83CFMM8FLATHEAD-AT COLUMBIA FALLS10-22-2018DISCHARGE (KAF)884117575
84MODO3DESCHUTES-AT MOODY NR BIGGS10-22-2018DISCHARGE (KAF)1329139795
85AFRI1SNAKE-AMERICAN FALLS RESERVOIR10-22-2018INFLOW (KAF)1212147582
86KERM8FLATHEAD-KERR DAM10-22-2018INFLOW (KAF)986149566
87LEOI1KOOTENAI-AT LEONIA10-22-2018DISCHARGE (KAF)24451513162
88SPDI1CLEARWATER-AT SPALDING10-22-2018DISCHARGE (KAF)783161548
89SWAI1SNAKE-BELOW SWAN FALLS10-22-2018DISCHARGE (KAF)1804256070
90NOXM8CLARK FORK-NOXON RAPIDS DAM10-22-2018INFLOW (KAF)2623351375
91WEII1SNAKE-AT WEISER10-22-2018DISCHARGE (KAF)2590363271
92CABI1CLARK FORK-CABINET GORGE DAM10-22-2018INFLOW (KAF)2881366979
93BRNI1SNAKE-BROWNLEE DAM10-22-2018INFLOW (KAF)2766374274
94ALFW1PEND OREILLE-ALBENI FALLS DAM10-22-2018INFLOW (KAF)2968428069
95ANAW1SNAKE-NEAR ANATONE10-22-2018DISCHARGE (KAF)4011569870
96LGDW1SNAKE-LOWER GRANITE DAM10-22-2018INFLOW (KAF)4794752064
97LGSW1SNAKE-LITTLE GOOSE DAM10-22-2018INFLOW (KAF)4794757063
98IHDW1SNAKE-ICE HARBOR DAM10-22-2018INFLOW (KAF)4840757664
99LMNW1SNAKE-LOWER MONUMENTAL DAM10-22-2018INFLOW (KAF)4840766163
100GCDW1COLUMBIA-GRAND COULEE DAM10-22-2018INFLOW (KAF)1940117239113
101WANW1COLUMBIA-WANAPUM DAM10-22-2018INFLOW (KAF)2158619761109
102PRWW1COLUMBIA-PRIEST RAPIDS DAM10-22-2018INFLOW (KAF)2158420109107
103CHJW1COLUMBIA-CHIEF JOSEPH DAM10-22-2018INFLOW (KAF)204952145296
104WELW1COLUMBIA-WELLS DAM10-22-2018INFLOW (KAF)208152183195
105RRHW1COLUMBIA-ROCKY REACH DAM10-22-2018INFLOW (KAF)214042232996
106MCDW1COLUMBIA-MCNARY DAM10-22-2018INFLOW (KAF)270472968491
107JDAO3COLUMBIA-JOHN DAY DAM10-22-2018INFLOW (KAF)282063067892
108TDAO3COLUMBIA-THE DALLES DAM10-22-2018INFLOW (KAF)288723435584
109BONO3COLUMBIA-BONNEVILLE DAM10-22-2018INFLOW (KAF)295433655281
110BFEI1KOOTENAI-AT BONNERS FERRY10-22-2018STAGE (FT)MMM
111DRMM8CLARK FORK-NR DRUMMOND10-22-2018DISCHARGE (KAF)153MM
112HOPI1PEND OREILLE-PEND OREILLE LAKE NR HOPE10-22-2018LAKE ELEVATION (FT)MMM
113SPOW1SPOKANE-AT SPOKANE10-22-2018DISCHARGE (KAF)328MM
114SJMI1ST JOE-AT ST MARIES10-22-2018STAGE (FT)MMM
115CIBW1COLUMBIA-AT INTL BOUNDARY10-22-2018DISCHARGE (KAF)18727MM
116LUCI1BOISE-LUCKY PEAK DAM10-22-2018INFLOW (KAF)43MM